FW3809 Weather Reports


Display with metric or nautical units.
time (UTC)temp
F
wind
direction
speed
MPH
gust
MPH
rain 1hr
in
rain 24hr
in
rain mn
in
humidity
%
barometer
mb
20210622223356 92 58 7.0 11.0 0.00 2.99 0.30 67 1011.6
20210622222831 92 59 7.0 13.0 0.00 2.99 0.30 67 1011.5
20210622222327 94 68 6.0 11.0 0.00 2.99 0.30 65 1011.6
20210622221826 94 10 5.0 12.0 0.00 2.99 0.30 65 1011.4
20210622221309 94 60 6.0 12.0 0.00 2.99 0.30 65 1011.3
20210622220811 94 63 7.0 14.0 0.00 3.00 0.30 64 1011.3
20210622220249 94 50 7.0 14.0 0.00 3.01 0.30 64 1011.3
20210622215751 95 19 8.0 14.0 0.00 3.01 0.30 64 1011.3
20210622215250 95 35 7.0 14.0 0.00 3.01 0.30 64 1011.1
20210622214747 95 59 7.0 14.0 0.00 3.01 0.30 64 1011.1
20210622214225 96 56 7.0 14.0 0.00 3.01 0.30 63 1011.1
20210622213727 96 46 7.0 12.0 0.00 3.01 0.30 63 1011.0
20210622213203 96 4 6.0 12.0 0.00 3.01 0.30 63 1011.0
20210622212636 96 28 6.0 12.0 0.00 3.01 0.30 64 1011.0
20210622212123 96 359 5.0 12.0 0.00 3.01 0.30 62 1011.0
20210622211622 96 18 5.0 9.0 0.00 3.01 0.30 63 1011.1
20210622211101 95 26 5.0 12.0 0.00 3.01 0.30 62 1011.4
20210622210603 95 37 4.0 11.0 0.00 3.01 0.30 63 1011.6
20210622210040 95 51 3.0 9.0 0.00 3.01 0.30 63 1011.7
20210622205529 94 344 4.0 11.0 0.00 3.01 0.30 64 1011.8
20210622205025 95 54 3.0 11.0 0.00 3.01 0.30 64 1012.0
20210622204527 94 15 4.0 10.0 0.00 3.01 0.30 67 1012.1
20210622204005 93 47 4.0 10.0 0.00 3.01 0.30 67 1012.3
20210622203445 93 32 2.0 6.0 0.00 3.01 0.30 67 1012.4
20210622202922 92 75 2.0 5.0 0.00 3.01 0.30 69 1012.5
20210622202355 91 75 2.0 8.0 0.00 3.01 0.30 70 1012.7
20210622201855 91 67 2.0 8.0 0.00 3.01 0.30 72 1012.9
20210622201354 90 74 2.0 5.0 0.00 3.01 0.30 72 1012.9
20210622200829 90 77 3.0 5.0 0.00 3.01 0.30 72 1013.1
20210622200302 90 70 3.0 8.0 0.00 3.01 0.30 72 1013.2
20210622195802 91 112 4.0 10.0 0.00 3.01 0.30 71 1013.3
20210622195233 92 67 3.0 10.0 0.00 3.01 0.30 70 1013.4
20210622194704 92 350 3.0 7.0 0.00 3.01 0.30 70 1013.5
20210622194201 92 11 3.0 7.0 0.00 3.01 0.30 69 1013.5
20210622193658 91 41 2.0 5.0 0.00 3.01 0.30 71 1013.5
20210622193154 90 195 2.0 5.0 0.00 3.01 0.30 72 1013.5
20210622192654 90 222 3.0 10.0 0.00 3.01 0.30 73 1013.5
20210622192149 89 321 4.0 10.0 0.00 3.01 0.30 74 1013.5
20210622191647 88 229 4.0 9.0 0.00 3.01 0.30 74 1013.6
20210622191144 88 256 4.0 9.0 0.00 3.01 0.30 73 1013.7
20210622190619 88 241 3.0 6.0 0.00 3.01 0.30 74 1013.8
20210622190053 87 210 3.0 9.0 0.00 3.01 0.30 75 1013.9
20210622185548 87 235 2.0 9.0 0.00 3.01 0.30 76 1014.0
20210622185021 87 168 2.0 8.0 0.00 3.01 0.30 78 1014.1
20210622184517 87 125 3.0 8.0 0.01 3.01 0.30 79 1014.1
20210622183951 86 118 5.0 12.0 0.01 3.01 0.30 78 1014.2
20210622183425 86 180 7.0 14.0 0.01 3.01 0.30 78 1014.3
20210622182922 88 194 5.0 14.0 0.01 3.01 0.30 75 1014.5
20210622182355 90 239 2.0 6.0 0.01 3.01 0.30 70 1014.4
20210622181851 91 112 1.0 5.0 0.01 3.01 0.30 69 1014.3
20210622181347 92 92 1.0 5.0 0.01 3.01 0.30 69 1014.4
20210622180821 92 37 2.0 6.0 0.01 3.01 0.30 68 1014.5
20210622180254 92 33 3.0 8.0 0.01 3.01 0.30 68 1014.5
20210622175751 92 59 2.0 8.0 0.01 3.01 0.30 70 1014.4
20210622175226 91 37 1.0 6.0 0.01 3.01 0.30 72 1014.5
20210622174659 90 89 1.0 3.0 0.01 3.01 0.30 72 1014.6
20210622174157 90 58 2.0 6.0 0.00 3.00 0.29 72 1014.6
20210622173628 90 66 2.0 7.0 0.00 3.00 0.29 72 1014.7
20210622173126 90 116 1.0 6.0 0.00 3.00 0.29 71 1014.6
20210622172624 91 25 2.0 6.0 0.00 3.00 0.29 71 1014.7
20210622172125 90 46 2.0 7.0 0.00 3.00 0.29 73 1014.8
20210622171617 90 42 3.0 7.0 0.00 3.00 0.29 73 1014.8
20210622171050 89 38 3.0 9.0 0.00 3.00 0.29 74 1014.8
20210622170548 89 55 3.0 9.0 0.00 3.00 0.29 75 1014.8
20210622170021 89 118 3.0 7.0 0.00 3.00 0.29 75 1014.8
20210622165455 89 100 4.0 9.0 0.00 3.00 0.29 75 1014.9
20210622164952 89 121 4.0 9.0 0.00 3.00 0.29 75 1015.0
20210622164424 89 40 4.0 9.0 0.00 3.00 0.29 76 1014.9
20210622163922 88 25 3.0 9.0 0.00 3.00 0.29 76 1014.9
20210622163420 88 110 3.0 9.0 0.00 3.00 0.29 77 1014.9
20210622162852 88 37 3.0 9.0 0.00 3.00 0.29 77 1015.0
20210622162324 87 4 3.0 6.0 0.00 3.00 0.29 78 1014.9
20210622161822 87 33 2.0 6.0 0.00 3.00 0.29 77 1014.9
20210622161256 87 58 1.0 5.0 0.00 3.00 0.29 78 1014.8
20210622160728 86 354 1.0 4.0 0.00 3.00 0.29 79 1014.7
20210622160224 86 335 2.0 5.0 0.00 3.00 0.29 79 1014.7
20210622155658 87 308 1.0 7.0 0.00 3.00 0.29 77 1014.7
20210622155131 87 4 2.0 7.0 0.00 3.00 0.29 79 1014.6
20210622154632 87 359 4.0 8.0 0.00 3.00 0.29 79 1014.7
20210622154111 86 47 4.0 10.0 0.00 3.00 0.29 80 1014.7
20210622153611 85 359 3.0 10.0 0.00 3.00 0.29 81 1014.7
20210622153049 85 85 5.0 10.0 0.00 3.00 0.29 81 1014.6
20210622152551 85 21 5.0 10.0 0.00 3.00 0.29 82 1014.3
20210622152035 85 315 4.0 8.0 0.00 3.00 0.29 82 1014.2
20210622151536 85 348 4.0 9.0 0.00 3.00 0.29 82 1014.0
20210622151011 85 16 4.0 9.0 0.00 3.00 0.29 83 1014.0
20210622150511 84 46 3.0 7.0 0.00 3.00 0.29 83 1014.1
20210622145953 84 34 4.0 10.0 0.00 3.00 0.29 84 1014.1
20210622145450 84 21 4.0 10.0 0.00 3.00 0.29 83 1014.1
20210622144953 84 31 3.0 7.0 0.00 3.00 0.29 85 1014.0
20210622144431 83 46 3.0 12.0 0.00 3.00 0.29 86 1013.9
20210622143912 83 13 6.0 12.0 0.00 3.00 0.29 88 1014.0
20210622143353 82 4 6.0 12.0 0.00 3.00 0.29 87 1014.0
20210622142821 82 29 5.0 12.0 0.00 3.00 0.29 88 1014.0
20210622142321 82 40 3.0 10.0 0.00 3.00 0.29 89 1014.1
20210622141819 81 34 5.0 12.0 0.00 3.00 0.29 91 1014.1
20210622141317 81 54 6.0 12.0 0.00 3.00 0.29 90 1014.0
20210622140809 80 8 6.0 11.0 0.00 3.00 0.29 91 1014.0
20210622140306 80 16 6.0 10.0 0.00 3.00 0.29 91 1013.8
20210622135741 80 4 4.0 10.0 0.00 3.00 0.29 92 1013.6
20210622135238 80 21 4.0 8.0 0.00 3.00 0.29 94 1013.5
20210622134736 79 20 3.0 8.0 0.00 3.00 0.29 95 1013.5
20210622134233 79 315 3.0 5.0 0.00 3.00 0.29 96 1013.3
20210622133706 79 354 4.0 11.0 0.00 3.00 0.29 97 1013.2
20210622133203 78 324 5.0 13.0 0.00 3.00 0.29 97 1012.9
20210622132701 78 287 4.0 13.0 0.00 3.00 0.29 97 1012.8
20210622132135 78 322 3.0 9.0 0.00 3.00 0.29 97 1012.8
20210622131632 78 359 2.0 9.0 0.00 3.00 0.29 98 1012.8
20210622131128 77 217 1.0 3.0 0.00 3.00 0.29 98 1012.7
20210622130603 77 218 1.0 4.0 0.00 3.00 0.29 98 1012.6
20210622130036 76 217 1.0 4.0 0.00 3.00 0.29 98 1012.5
20210622125511 76 218 0.0 1.0 0.00 3.00 0.29 97 1012.7
20210622124943 76 217 1.0 2.0 0.00 3.00 0.29 98 1012.7
20210622124440 76 217 1.0 3.0 0.00 3.00 0.29 98 1012.8
20210622123938 76 217 2.0 3.0 0.00 3.00 0.29 97 1012.8
20210622123432 75 217 2.0 3.0 0.00 3.00 0.29 97 1012.7
20210622122905 75 217 2.0 3.0 0.00 3.00 0.29 97 1012.6
20210622122402 75 217 2.0 3.0 0.00 3.00 0.29 97 1012.6
20210622121837 75 217 1.0 4.0 0.00 3.00 0.29 97 1012.6
20210622121309 75 217 2.0 4.0 0.00 3.00 0.29 97 1012.6
20210622120807 75 216 1.0 3.0 0.00 3.00 0.29 97 1012.5
20210622120241 75 216 1.0 3.0 0.00 3.00 0.29 97 1012.4
20210622115737 74 216 1.0 3.0 0.00 3.00 0.29 97 1012.3
20210622115234 74 216 1.0 3.0 0.02 3.00 0.29 97 1012.3
20210622114732 74 216 2.0 5.0 0.03 3.00 0.29 97 1012.2
20210622114228 74 213 2.0 5.0 0.06 3.00 0.29 96 1012.2
20210622113701 74 139 3.0 6.0 0.07 3.00 0.29 96 1012.3
20210622113158 74 120 3.0 6.0 0.08 3.00 0.29 96 1012.2
20210622112632 74 110 3.0 6.0 0.10 3.00 0.29 96 1012.2
20210622112129 74 100 2.0 6.0 0.12 3.00 0.29 96 1012.3
20210622111602 74 45 2.0 4.0 0.15 3.00 0.29 96 1012.2
20210622111035 74 26 2.0 4.0 0.16 3.00 0.29 95 1012.1
20210622110532 74 4 1.0 4.0 0.19 3.00 0.29 95 1012.1
20210622110005 74 4 1.0 4.0 0.21 3.00 0.29 95 1011.8
20210622105502 74 8 1.0 3.0 0.21 2.99 0.28 95 1012.2
20210622104937 74 8 2.0 9.0 0.20 2.97 0.26 95 1013.0
20210622104431 75 4 3.0 9.0 0.18 2.95 0.25 94 1013.2
20210622103929 76 310 3.0 15.0 0.17 2.93 0.23 95 1013.2
20210622103421 76 8 5.0 18.0 0.18 2.93 0.22 95 1012.9
20210622102918 78 66 8.0 18.0 0.16 2.91 0.21 96 1012.8
20210622102351 78 74 7.0 15.0 0.14 2.89 0.18 96 1012.8
20210622101849 78 98 4.0 15.0 0.10 2.85 0.14 96 1012.5
20210622101322 79 37 3.0 9.0 0.09 2.84 0.13 96 1012.3
20210622100819 79 54 3.0 9.0 0.08 2.83 0.12 97 1012.3
20210622100255 79 18 2.0 8.0 0.05 2.80 0.10 97 1012.3
20210622095753 79 79 2.0 7.0 0.03 2.78 0.07 96 1012.3
20210622095231 79 78 5.0 10.0 0.03 2.78 0.07 96 1012.1
20210622094704 79 81 4.0 10.0 0.03 2.77 0.06 96 1012.1
20210622094146 79 86 3.0 11.0 0.03 2.77 0.06 96 1011.9
20210622093647 80 116 4.0 11.0 0.01 2.75 0.05 96 1011.9
20210622093131 80 96 4.0 8.0 0.01 2.75 0.04 97 1012.0
20210622092633 80 21 4.0 11.0 0.01 2.75 0.04 97 1011.8
20210622092108 80 57 5.0 12.0 0.01 2.75 0.04 97 1011.4
20210622091553 80 43 6.0 12.0 0.02 2.75 0.04 97 1011.1
20210622091036 80 18 6.0 11.0 0.02 2.75 0.04 97 1010.9
20210622090540 80 34 4.0 10.0 0.02 2.75 0.04 97 1010.7
20210622090034 80 26 1.0 5.0 0.03 2.75 0.04 97 1010.3
20210622085535 80 166 1.0 5.0 0.03 2.75 0.04 97 1009.9
20210622085034 80 167 2.0 6.0 0.03 2.75 0.04 97 1009.8
20210622084531 80 138 4.0 9.0 0.02 2.74 0.03 97 1009.6
20210622084031 80 190 4.0 9.0 0.03 2.74 0.03 97 1009.8
20210622083511 80 199 3.0 7.0 0.03 2.74 0.03 97 1010.0
20210622083009 80 209 3.0 8.0 0.03 2.74 0.03 97 1010.4
20210622082510 80 210 3.0 8.0 0.03 2.74 0.03 97 1010.6
20210622081949 80 194 3.0 7.0 0.03 2.74 0.03 97 1010.9
20210622081426 80 246 3.0 7.0 0.02 2.73 0.02 97 1011.0
20210622080923 80 241 3.0 7.0 0.02 2.73 0.02 97 1011.1
20210622080356 80 232 3.0 7.0 0.01 2.72 0.02 97 1011.1
20210622075854 80 206 3.0 7.0 0.01 2.72 0.01 97 1011.4
20210622075328 80 249 3.0 6.0 0.01 2.72 0.01 97 1011.6
20210622074802 80 257 3.0 9.0 0.01 2.72 0.01 97 1011.5
20210622074236 80 210 5.0 10.0 0.01 2.72 0.01 97 1011.5
20210622073733 80 219 5.0 11.0 0.00 2.71 0.00 98 1011.3
20210622073204 80 166 5.0 11.0 0.00 2.71 0.00 98 1011.2
20210622072702 80 175 5.0 10.0 0.00 2.71 0.00 98 1011.1
20210622072202 80 191 5.0 11.0 0.00 2.71 0.00 98 1011.1
20210622071656 80 194 5.0 11.0 0.00 2.71 0.00 98 1011.1
20210622071129 80 156 6.0 11.0 0.00 2.71 0.00 98 1011.0
20210622070626 80 148 5.0 11.0 0.00 2.71 0.00 98 1010.8
20210622070059 80 154 5.0 8.0 0.00 2.71 0.00 98 1010.9
20210622065533 80 152 4.0 8.0 0.00 2.71 0.00 98 1011.2
20210622065006 80 189 2.0 6.0 0.00 2.71 0.00 98 1011.4
20210622064442 79 96 0.0 4.0 0.00 2.71 0.00 98 1011.7
20210622063938 79 58 0.0 0.0 0.00 2.71 0.00 98 1011.7
20210622063435 79 57 0.0 0.0 0.00 2.71 0.00 98 1011.6
20210622062911 79 58 0.0 0.0 0.00 2.71 0.00 98 1011.8
20210622062342 79 58 0.0 0.0 0.00 2.71 0.00 98 1011.7
20210622061839 79 58 0.0 0.0 0.00 2.71 0.00 98 1011.6
20210622061315 79 58 0.0 0.0 0.00 2.71 0.00 98 1011.6
20210622060748 79 57 0.0 0.0 0.00 2.71 0.00 98 1011.6
20210622060231 79 58 0.0 0.0 0.00 2.71 0.00 98 1011.6
20210622055734 79 58 0.0 0.0 0.00 2.71 0.00 98 1011.8
20210622055206 79 57 0.0 0.0 0.00 2.71 0.00 98 1011.8
20210622054704 79 58 0.0 0.0 0.00 2.71 0.00 98 1012.0
20210622054136 79 57 0.0 0.0 0.00 2.71 0.00 98 1012.1
20210622053633 79 58 0.0 0.0 0.00 2.71 0.00 98 1012.2
20210622053107 79 58 0.0 0.0 0.00 2.71 0.00 98 1012.1
20210622052604 79 58 0.0 0.0 0.00 2.71 0.00 98 1012.0
20210622052042 79 56 0.0 0.0 0.00 2.71 0.00 98 1012.0
20210622051534 79 56 0.0 0.0 0.00 2.71 0.00 97 1012.1
20210622051033 79 56 0.0 0.0 0.00 2.71 0.00 97 1012.1
20210622050504 79 55 0.0 0.0 0.00 2.71 0.00 97 1012.2
20210622050003 79 56 0.0 2.0 0.00 2.71 0.00 98 1012.5
20210622045438 79 55 2.0 5.0 0.00 2.71 2.71 97 1012.7
20210622044934 79 56 3.0 5.0 0.00 2.71 2.71 97 1013.0
20210622044432 79 60 2.0 4.0 0.00 2.71 2.71 97 1013.0
20210622043904 78 60 2.0 3.0 0.00 2.71 2.71 97 1012.9
20210622043338 78 60 2.0 5.0 0.00 2.71 2.71 97 1012.9
20210622042812 78 60 2.0 5.0 0.00 2.71 2.71 97 1013.1
20210622042245 78 65 2.0 4.0 0.00 2.71 2.71 97 1012.8
20210622041718 78 60 1.0 3.0 0.00 2.71 2.71 97 1012.8
20210622041153 78 60 0.0 0.0 0.00 2.71 2.71 98 1012.7
20210622040651 78 60 0.0 0.0 0.00 2.71 2.71 97 1012.4
20210622040148 78 61 0.0 0.0 0.00 2.71 2.71 97 1012.1
20210622035622 78 60 0.0 0.0 0.00 2.71 2.71 97 1012.0
20210622035054 78 61 0.0 0.0 0.00 2.71 2.71 97 1012.0
20210622034551 78 60 0.0 0.0 0.00 2.71 2.71 97 1011.6
20210622034048 78 60 0.0 0.0 0.00 2.71 2.71 97 1011.9
20210622033546 78 60 0.0 0.0 0.00 2.71 2.71 97 1012.1
20210622033030 78 61 0.0 0.0 0.00 2.71 2.71 97 1012.0
20210622032528 78 61 0.0 0.0 0.00 2.71 2.71 97 1011.8
20210622032000 78 60 0.0 0.0 0.00 2.71 2.71 97 1011.8
20210622031457 77 60 0.0 0.0 0.00 2.71 2.71 97 1011.9
20210622030955 77 60 0.0 0.0 0.00 2.71 2.71 97 1011.6
20210622030452 77 60 0.0 0.0 0.00 2.71 2.71 97 1011.5
20210622025924 77 60 0.0 0.0 0.00 2.71 2.71 97 1011.1
20210622025420 77 58 0.0 0.0 0.00 2.71 2.71 97 1010.6
20210622024856 77 58 0.0 0.0 0.00 2.71 2.71 97 1010.5
20210622024328 77 58 0.0 0.0 0.00 2.71 2.71 97 1010.5
20210622023826 77 58 0.0 0.0 0.00 2.71 2.71 96 1010.5
20210622023259 77 58 0.0 0.0 0.00 2.71 2.71 96 1010.5
20210622022755 77 58 0.0 4.0 0.00 2.71 2.71 96 1010.3
20210622022229 77 58 1.0 4.0 0.00 2.71 2.71 96 1010.1
20210622021703 77 58 2.0 4.0 0.00 2.71 2.71 96 1010.1
20210622021201 77 58 1.0 4.0 0.00 2.71 2.71 96 1010.4
20210622020633 77 56 0.0 0.0 0.00 2.71 2.71 96 1010.2
20210622020129 77 56 0.0 0.0 0.00 2.71 2.71 96 1010.1
20210622015603 77 55 0.0 1.0 0.00 2.71 2.71 96 1010.1
20210622015100 77 56 1.0 5.0 0.00 2.71 2.71 96 1010.2
20210622014532 77 56 2.0 5.0 0.00 2.71 2.71 96 1010.2
20210622014030 77 56 2.0 5.0 0.00 2.71 2.71 96 1010.2
20210622013504 77 97 1.0 4.0 0.00 2.71 2.71 95 1010.0
20210622012938 77 104 2.0 6.0 0.00 2.71 2.71 95 1009.6
20210622012434 77 104 2.0 6.0 0.01 2.71 2.71 95 1009.4
20210622011906 77 104 2.0 4.0 0.08 2.71 2.71 95 1009.4
20210622011405 77 160 3.0 7.0 0.22 2.71 2.71 96 1009.4
20210622010836 77 200 4.0 9.0 0.39 2.71 2.71 96 1009.3
20210622010334 77 247 3.0 9.0 0.58 2.71 2.71 96 1009.5
20210622005808 77 206 3.0 10.0 0.87 2.71 2.71 96 1009.6
20210622005308 76 199 4.0 10.0 1.29 2.71 2.71 96 1009.8
20210622004746 75 189 3.0 7.0 1.62 2.71 2.71 95 1010.1
20210622004244 74 154 2.0 11.0 1.96 2.71 2.71 94 1010.0
20210622003716 74 84 2.0 11.0 2.16 2.71 2.71 94 1009.7
20210622003214 74 289 5.0 13.0 2.48 2.71 2.71 93 1009.4
20210622002702 74 170 9.0 20.0 2.66 2.70 2.71 92 1009.7
20210622002204 75 179 8.0 20.0 2.63 2.66 2.68 91 1009.3
20210622001644 78 116 8.0 18.0 2.52 2.55 2.57 95 1009.7
20210622001137 78 102 8.0 15.0 2.40 2.43 2.45 95 1009.9
20210622000635 78 44 11.0 19.0 2.18 2.21 2.21 95 1010.2
20210622000114 79 43 13.0 20.0 1.94 1.97 2.01 94 1010.2
20210621235552 80 79 14.0 20.0 1.66 1.68 1.72 95 1010.5
20210621235054 80 36 10.0 17.0 1.23 1.25 1.27 94 1010.2
20210621234534 81 24 6.0 16.0 0.91 0.93 0.96 93 1009.8
20210621234034 81 42 5.0 10.0 0.67 0.69 0.71 92 1009.4
20210621233536 81 101 3.0 11.0 0.42 0.44 0.45 91 1009.2
20210621233010 82 269 1.0 6.0 0.07 0.09 0.12 91 1009.2
20210621232449 82 115 2.0 7.0 0.02 0.04 0.04 90 1008.9
20210621231946 82 115 2.0 10.0 0.01 0.03 0.03 89 1008.8
20210621231445 82 131 4.0 10.0 0.01 0.03 0.03 89 1008.8
20210621230928 83 68 6.0 13.0 0.02 0.03 0.03 88 1008.6
20210621230428 83 142 6.0 13.0 0.02 0.03 0.03 87 1008.6
20210621225925 83 149 6.0 14.0 0.03 0.03 0.03 86 1008.6
20210621225423 83 114 6.0 14.0 0.02 0.02 0.02 86 1008.7
20210621224857 84 155 6.0 13.0 0.02 0.02 0.02 87 1008.8
20210621224352 84 116 4.0 11.0 0.02 0.02 0.02 87 1008.9
20210621223827 84 110 4.0 5.0 0.02 0.02 0.02 87 1008.9